#timestamp,LO_Frequency,Hit,StdDev 
1548194415.5,286046999.2,N
1548194435.3,286046999.4,N
1548194455.1,286046998.7,N
1548194475.9,286046998.7,N
1548194495.7,286046998.1,N
1548194515.6,286046999.8,N
1548194535.4,286046999.8,N
1548194555.2,286047002.1,N
1548194575.1,286047001.6,N
1548194576.0,286047001.6,N
1548194595.8,286047001.6,N
1548194615.6,286046999.7,N
1548194635.5,286047000.5,N
1548194655.3,286046999.9,N
1548194675.2,286046999.9,N
1548194695.9,286047000.4,N
1548194715.7,286047001.2,N
1548194735.6,286047000.7,N
1548194755.4,286047003.9,N
1548194775.2,286047002.2,N
1548194795.1,286047003.9,N
1548194796.0,286047003.9,N
1548194815.8,286047005.9,Y
1548194835.7,286047004.4,P
1548194855.5,286047002.0,N
1548194875.3,286047002.4,N
1548194895.2,286046999.9,N
1548194915.0,286047000.2,N
1548194915.9,286047000.2,N
1548194935.8,286047000.1,N
1548194955.6,286047001.4,N
1548194975.4,286047001.8,N
1548194995.3,286047001.6,N
1548195015.1,286047004.2,Y
1548195035.9,286046999.8,P
1548195055.7,286047002.8,P
1548195075.5,286047002.8,N
1548195095.4,286047000.9,N
1548195115.2,286046999.0,N
1548195135.0,286046998.3,N
1548195135.9,286046998.3,N
1548195155.8,286046999.2,N
1548195175.6,286046996.5,N
1548195195.5,286047001.2,N
1548195215.3,286046998.7,N
1548195235.1,286046998.5,N
1548195255.9,286047000.8,N
1548195275.7,286047000.5,N
1548195295.5,286047000.8,N
1548195315.4,286047011.9,Y
1548195335.2,286046998.2,P
1548195355.1,286046998.1,N
1548195356.0,286046998.1,N
1548195375.8,286046999.1,N
1548195395.6,286046998.7,N
1548195415.5,286046996.5,Y
1548195435.3,286046997.4,P
1548195455.2,286046997.4,P
1548195475.9,286046995.3,P
1548195495.7,286046995.4,Y
1548195515.6,286046998.1,P
1548195535.4,286046998.4,P
1548195555.3,286046997.0,P
1548195575.1,286046997.5,Y
1548195576.0,286046997.5,P
1548195595.8,286046999.1,P
1548195615.7,286046999.3,N
1548195635.5,286046999.3,N
1548195655.4,286046999.4,N
1548195675.2,286046998.6,N
1548195695.0,286046998.8,N
1548195695.9,286046998.8,N
1548195715.8,286047001.2,N
1548195735.6,286047000.8,N
1548195755.4,286047000.9,N
1548195775.3,286047000.2,N
1548195795.1,286047002.1,N
1548195815.9,286047001.4,N
1548195835.7,286047004.4,Y
1548195855.5,286047001.4,P
1548195875.4,286047004.0,P
1548195895.2,286047002.1,N
1548195915.1,286046999.7,N
1548195916.0,286046999.7,N
1548195935.8,286047000.3,N
1548195955.6,286046999.9,N
1548195975.5,286047002.8,N
1548195995.3,286047002.4,N
1548196015.1,286046999.9,N
1548196035.9,286046999.9,N
1548196055.7,286047002.6,N
1548196075.6,286047002.7,N
1548196095.4,286047002.7,N
1548196115.2,286047002.6,N
1548196135.1,286047002.5,N
1548196136.0,286047002.5,N
1548196155.8,286047002.0,N
1548196205.7,286047000.8,E
1548196215.6,286047000.7,N
1548196235.4,286046997.0,P
1548196255.3,286046995.0,N
1548196275.1,286046995.0,N
1548196295.9,286046995.0,N
1548196315.7,286046997.2,N
1548196335.5,286046998.1,N
1548196355.4,286047000.2,N
1548196375.2,286047002.6,N
1548196395.0,286047002.6,N
1548196395.9,286047002.6,N
1548196415.8,286047002.5,N
1548196435.6,286047002.4,N
1548196455.5,286046999.8,N
1548196475.3,286047001.9,N
1548196495.1,286047001.3,N
1548196515.9,286047002.6,N
1548196535.7,286047000.0,N
1548196555.6,286046998.7,N
1548196575.4,286047000.4,N
1548196595.2,286047000.4,N
1548196615.1,286047002.3,N
1548196616.0,286047002.3,N
1548196635.8,286047000.3,N
1548196655.6,286047000.1,N
1548196675.5,286047011.9,Y
1548196695.3,286047002.8,P
1548196715.2,286047002.2,N
1548196735.9,286047001.4,N
1548196755.7,286047001.6,N
1548196775.6,286047002.0,N
1548196795.4,286047000.3,N
1548196815.2,286046999.7,N
1548196835.1,286047002.5,N
1548196836.0,286047002.5,N
1548196855.8,286047000.7,N
1548196875.7,286047000.5,N
1548196895.5,286046998.2,N
1548196915.3,286046998.4,N
1548196935.2,286046998.1,N
1548196955.9,286046998.6,N
1548196975.7,286046998.7,N
1548196995.6,286046998.8,N
1548197015.4,286047001.1,N
1548197035.2,286046998.9,N
1548197055.1,286046998.8,N
1548197056.0,286046998.8,N
1548197075.8,286046999.1,N
1548197095.7,286046997.3,N
1548197115.5,286046997.0,N
1548197135.3,286046996.5,N
1548197155.2,286046996.9,N
1548197175.0,286046999.0,N
1548197175.9,286046999.0,N
1548197195.7,286046999.6,N
1548197215.6,286046996.9,N
1548197235.4,286046997.0,N
1548197255.3,286046996.8,N
1548197275.1,286046996.5,N
1548197276.0,286046996.5,N
1548197295.8,286046999.0,N
1548197315.7,286046999.5,N
1548197335.5,286046999.4,N
1548197355.3,286046998.4,N
1548197375.2,286046999.8,N
1548197395.0,286046999.8,N
1548197395.9,286046999.8,N
1548197415.8,286047000.9,N
1548197435.6,286047000.3,N
1548197455.4,286047001.2,N
1548197475.3,286047000.1,N
1548197495.1,286047002.3,N
1548197515.8,286047001.6,N
1548197535.7,286047002.0,N
1548197555.5,286047004.3,N
1548197575.4,286047004.3,N
1548197595.2,286047004.3,N
1548197615.0,286047003.1,N
1548197615.9,286047003.1,N
1548197635.8,286047003.4,N
1548197655.6,286047003.3,N
1548197675.4,286047005.9,N
1548197695.3,286047003.3,N
1548197715.1,286047003.5,N
1548197735.9,286047003.4,N
1548197755.7,286047004.4,N
1548197775.5,286047002.2,N
1548197795.4,286047002.2,N
1548197815.2,286046998.1,N
1548197835.0,286046996.5,N
1548197835.9,286046996.5,N
1548197855.8,286046999.4,N
1548197875.6,286046999.9,N
1548197895.5,286047002.5,N
1548197915.3,286047003.9,N
1548197935.1,286047007.6,Y
1548197955.9,286047004.8,P
1548197975.7,286047005.0,P
1548197995.5,286047006.7,P
